Terminal Aerodrome Forecast
Issued by NWS Sterling, VA

Home | Current Version | Previous Version | Text Only | Print | Product List | Glossary On
Versions: 1 2 3 4 5 6 7 8 9 10 11 12 13 14 15 16 17 18 19 20 21 22 23
000
FTUS41 KLWX 271854 AAA
TAFDCA
TAF AMD
KDCA 271854Z 2719/2818 20012G18KT P6SM -SHRA VCTS BKN050CB BKN130
      TEMPO 2720/2721 VRB30KT 5SM -TSRA
     FM272200 22009KT 6SM -TSRA BKN050CB BKN130
     FM280100 18005KT P6SM VCTS SCT050CB BKN200
     FM280400 18005KT P6SM SCT050 BKN200
     FM281300 24004KT 6SM BR SCT050 BKN200
     FM281500 31004KT 6SM BR BKN050
     FM281600 VRB03KT 5SM BR BKN050=

USA.gov is the U.S. government's official web portal to all federal, state and local government web resources and services.